South St. Paul, MN

4:45 PM CDT on April 24, 2018 (GMT -0500)
South Saint Paul Municipal-Fleming

Weather History for KSGS - November, 2011

Change the Weather History Date:

Tuesday, November 8, 2011

  Actual Average (KSTP) Record (KSTP)
Temperature  
Mean Temperature 40 °F -  
Max Temperature 45 °F 43 °F 78 °F (1999)
Min Temperature 36 °F 29 °F 15 °F (2003)
Degree Days  
Heating Degree Days 24    
Moisture  
Dew Point 26 °F    
Average Humidity 56    
Maximum Humidity 71    
Minimum Humidity 43    
Precipitation  
Precipitation 0.00 in - - ()
Sea Level Pressure  
Sea Level Pressure 30.18 in    
Wind  
Wind Speed 3 mph (NE)    
Max Wind Speed 7 mph    
Max Gust Speed 9 mph    
Visibility 10 miles    
Events      
Averages and records for this station are not official NWS values.
T = Trace of Precipitation, MM = Missing Value Source: NWS Daily Summary

Daily Weather History Graph

Daily Weather History Graph

Search for Another Location

Airport or City:

Astronomy

Nov. 08, 2011 Rise Set
Actual Time 6:59 AM CST 4:51 PM CST
Civil Twilight 6:28 AM CST 5:22 PM CST
Nautical Twilight 5:53 AM CST 5:57 PM CST
Astronomical Twilight 5:19 AM CST 6:31 PM CST
Moon 3:33 PM CST (11/8) 4:56 AM CST (11/8)
Length of Visible Light 10h 54m
Length of Day
9h 52m
Waxing Gibbous, 96% of the Moon is Illuminated
Nov 8
Waxing Gibbous
Nov 10
Full
Nov 18
Last Quarter
Nov 25
New
Dec 2
First Quarter

Hourly Weather History & Observations

Time (CST) Temp. Windchill Dew Point Humidity Pressure Visibility Wind Dir Wind Speed Gust Speed Precip Events Conditions
12:14 AM 41.2 °F 39.2 °F 28.0 °F 60% 30.22 in 10.0 mi North 3.5 mph - N/A   Clear
12:33 AM 40.6 °F 36.7 °F 27.9 °F 60% 30.21 in 10.0 mi North 5.8 mph - N/A   Clear
12:54 AM 40.5 °F 38.4 °F 27.3 °F 59% 30.21 in 10.0 mi North 3.5 mph - N/A   Clear
1:14 AM 39.6 °F - 27.1 °F 61% 30.20 in 10.0 mi Calm Calm - N/A   Clear
1:34 AM 39.6 °F - 27.3 °F 62% 30.21 in 10.0 mi Calm Calm - N/A   Clear
1:54 AM 39.2 °F - 27.5 °F 63% 30.21 in 10.0 mi Calm Calm - N/A   Clear
2:14 AM 39.0 °F - 27.3 °F 63% 30.20 in 10.0 mi Calm Calm - N/A   Clear
2:33 AM 38.5 °F - 27.0 °F 63% 30.20 in 10.0 mi Calm Calm - N/A   Clear
2:54 AM 38.5 °F 35.0 °F 27.3 °F 64% 30.19 in 10.0 mi NNE 4.6 mph - N/A   Clear
3:14 AM 37.9 °F 35.5 °F 27.3 °F 66% 30.19 in 10.0 mi NNE 3.5 mph - N/A   Clear
3:33 AM 38.3 °F 34.8 °F 27.3 °F 65% 30.19 in 10.0 mi NNE 4.6 mph - N/A   Clear
4:33 AM 37.4 °F 34.9 °F 27.3 °F 67% 30.19 in 10.0 mi NNE 3.5 mph - N/A   Clear
4:54 AM 37.6 °F 35.1 °F 27.5 °F 67% 30.19 in 10.0 mi NNE 3.5 mph - N/A   Clear
5:14 AM 37.2 °F 34.7 °F 27.3 °F 67% 30.19 in 10.0 mi North 3.5 mph - N/A   Clear
5:33 AM 36.7 °F 34.1 °F 27.5 °F 69% 30.19 in 10.0 mi North 3.5 mph - N/A   Clear
5:54 AM 37.0 °F 34.5 °F 27.3 °F 68% 30.19 in 10.0 mi NNE 3.5 mph - N/A   Clear
6:14 AM 36.5 °F 32.7 °F 27.5 °F 70% 30.18 in 10.0 mi NNE 4.6 mph - N/A   Clear
6:34 AM 36.3 °F 32.5 °F 27.5 °F 70% 30.18 in 10.0 mi North 4.6 mph - N/A   Clear
6:54 AM 36.5 °F 33.9 °F 27.9 °F 71% 30.18 in 10.0 mi NNE 3.5 mph - N/A   Clear
7:14 AM 37.0 °F - 27.5 °F 68% 30.18 in 10.0 mi Calm Calm - N/A   Clear
7:34 AM 37.0 °F 34.5 °F 27.3 °F 68% 30.18 in 10.0 mi NNE 3.5 mph - N/A   Clear
8:14 AM 38.5 °F - 27.3 °F 64% 30.18 in 10.0 mi Calm Calm - N/A   Clear
8:34 AM 39.2 °F 35.9 °F 27.5 °F 63% 30.20 in 10.0 mi ENE 4.6 mph - N/A   Clear
8:53 AM 39.6 °F 37.4 °F 27.7 °F 62% 30.19 in 10.0 mi ENE 3.5 mph - N/A   Clear
9:14 AM 39.7 °F 36.5 °F 27.7 °F 62% 30.19 in 10.0 mi ENE 4.6 mph - N/A   Clear
9:34 AM 40.8 °F 38.8 °F 27.3 °F 59% 30.20 in 10.0 mi NNE 3.5 mph - N/A   Clear
9:53 AM 42.1 °F 38.4 °F 27.5 °F 56% 30.19 in 10.0 mi ENE 5.8 mph - N/A   Clear
10:14 AM 41.9 °F 39.0 °F 26.6 °F 55% 30.20 in 10.0 mi NE 4.6 mph - N/A   Clear
10:34 AM 42.3 °F 37.9 °F 26.4 °F 54% 30.20 in 10.0 mi NE 6.9 mph - N/A   Clear
10:53 AM 42.4 °F 38.8 °F 26.4 °F 53% 30.20 in 10.0 mi NE 5.8 mph - N/A   Clear
11:14 AM 43.0 °F 39.5 °F 25.5 °F 50% 30.20 in 10.0 mi NE 5.8 mph - N/A   Clear
11:34 AM 43.2 °F 39.7 °F 25.7 °F 50% 30.19 in 10.0 mi ENE 5.8 mph - N/A   Clear
11:54 AM 43.5 °F 40.1 °F 25.9 °F 50% 30.19 in 10.0 mi ENE 5.8 mph - N/A   Clear
12:13 PM 43.7 °F 41.1 °F 25.9 °F 50% 30.18 in 10.0 mi ENE 4.6 mph - N/A   Scattered Clouds
12:33 PM 43.7 °F 41.1 °F 25.9 °F 50% 30.17 in 10.0 mi NE 4.6 mph - N/A   Scattered Clouds
12:54 PM 44.4 °F 42.9 °F 26.4 °F 49% 30.17 in 10.0 mi ENE 3.5 mph - N/A   Clear
1:14 PM 44.6 °F 42.2 °F 26.1 °F 48% 30.15 in 10.0 mi ENE 4.6 mph - N/A   Clear
1:34 PM 44.8 °F 42.4 °F 24.4 °F 45% 30.15 in 10.0 mi NNE 4.6 mph 9.2 mph N/A   Clear
2:14 PM 45.1 °F 42.0 °F 24.4 °F 44% 30.14 in 10.0 mi NE 5.8 mph - N/A   Clear
2:34 PM 45.1 °F 42.0 °F 25.2 °F 46% 30.13 in 10.0 mi ENE 5.8 mph - N/A   Clear
2:54 PM 45.5 °F 42.5 °F 25.5 °F 46% 30.14 in 10.0 mi NE 5.8 mph - N/A   Clear
3:13 PM 45.9 °F 43.6 °F 25.7 °F 45% 30.14 in 10.0 mi NNE 4.6 mph - N/A   Clear
3:34 PM 45.7 °F 43.4 °F 25.5 °F 45% 30.14 in 10.0 mi ENE 4.6 mph - N/A   Clear
3:54 PM 45.7 °F 44.4 °F 25.2 °F 45% 30.14 in 10.0 mi NE 3.5 mph - N/A   Clear
4:14 PM 45.5 °F - 25.3 °F 45% 30.15 in 10.0 mi Calm Calm - N/A   Clear
4:34 PM 45.5 °F - 25.0 °F 45% 30.15 in 10.0 mi Calm Calm - N/A   Clear
4:53 PM 45.0 °F - 24.8 °F 45% 30.15 in 10.0 mi Calm Calm - N/A   Clear
5:14 PM 44.8 °F - 25.2 °F 46% 30.15 in 10.0 mi Calm Calm - N/A   Scattered Clouds
5:34 PM 44.6 °F 43.1 °F 25.0 °F 46% 30.14 in 10.0 mi NNE 3.5 mph - N/A   Scattered Clouds
5:53 PM 44.6 °F 43.1 °F 23.7 °F 44% 30.15 in 10.0 mi North 3.5 mph - N/A   Clear
6:14 PM 44.2 °F 42.7 °F 23.0 °F 43% 30.15 in 10.0 mi North 3.5 mph - N/A   Clear
6:34 PM 44.1 °F 42.5 °F 23.2 °F 44% 30.15 in 10.0 mi North 3.5 mph - N/A   Clear
6:54 PM 44.1 °F 42.5 °F 22.6 °F 43% 30.15 in 10.0 mi North 3.5 mph - N/A   Clear
7:14 PM 43.9 °F 41.3 °F 22.6 °F 43% 30.15 in 10.0 mi North 4.6 mph - N/A   Clear
7:33 PM 43.7 °F 42.1 °F 22.6 °F 43% 30.15 in 10.0 mi North 3.5 mph - N/A   Clear
7:54 PM 43.7 °F 42.1 °F 23.0 °F 44% 30.14 in 10.0 mi North 3.5 mph - N/A   Clear
8:14 PM 43.3 °F - 23.5 °F 46% 30.15 in 10.0 mi Calm Calm - N/A   Clear
8:34 PM 43.5 °F - 23.5 °F 45% 30.15 in 10.0 mi Calm Calm - N/A   Clear
8:54 PM 43.3 °F - 23.5 °F 46% 30.15 in 10.0 mi Calm Calm - N/A   Clear
9:14 PM 43.7 °F - 23.5 °F 45% 30.15 in 10.0 mi Calm Calm - N/A   Clear
9:34 PM 43.0 °F - 23.9 °F 47% 30.15 in 10.0 mi Calm Calm - N/A   Clear
9:54 PM 42.6 °F - 23.9 °F 48% 30.15 in 10.0 mi Calm Calm - N/A   Clear
10:14 PM 43.3 °F - 24.1 °F 47% 30.15 in 10.0 mi Calm Calm - N/A   Clear
10:34 PM 43.0 °F 41.3 °F 23.9 °F 47% 30.14 in 10.0 mi NE 3.5 mph - N/A   Clear
11:14 PM 42.6 °F 39.9 °F 23.4 °F 47% 30.14 in 10.0 mi North 4.6 mph - N/A   Clear
11:34 PM 42.3 °F 38.6 °F 23.2 °F 47% 30.14 in 10.0 mi NNE 5.8 mph - N/A   Clear
11:54 PM 41.9 °F 38.2 °F 23.9 °F 49% 30.13 in 10.0 mi North 5.8 mph - N/A   Clear